This is the latest recevied weather packets stored in our database for station/object VK4GDW-13. If no packets are shown the sender has not sent any weather packets the latest 10 day(s).
| Time | Temp. | Humidity | Pressure | Rain* | Wind** | Luminosity | Snow |
|---|---|---|---|---|---|---|---|
| 1788336566 | 23.89° C | 26% | 1022.1 hPa | 0 mm | - | - | - |
| 1788336263 | 24.44° C | 26% | 1022 hPa | 0 mm | - | - | - |
| 1788335961 | 24.44° C | 25% | 1022 hPa | 0 mm | - | - | - |
| 1788335657 | 24.44° C | 25% | 1021.8 hPa | 0 mm | - | - | - |
| 1788335354 | 25° C | 24% | 1021.8 hPa | 0 mm | - | - | - |
| 1788335051 | 24.44° C | 24% | 1021.9 hPa | 0 mm | - | - | - |
| 1788250229 | 22.22° C | 26% | 1024.7 hPa | 0 mm | - | - | - |
| 1788249926 | 22.78° C | 26% | 1024.7 hPa | 0 mm | - | - | - |
| 1788249623 | 22.78° C | 25% | 1024.7 hPa | 0 mm | - | - | - |
| 1788249321 | 23.33° C | 25% | 1024.7 hPa | 0 mm | - | - | - |
| 1788249016 | 23.33° C | 25% | 1024.7 hPa | 0 mm | - | - | - |
| 1788248713 | 23.33° C | 24% | 1024.7 hPa | 0 mm | - | - | - |
| 1788163183 | 23.33° C | 28% | 1027 hPa | 0 mm | - | - | - |
| 1788162880 | 23.33° C | 27% | 1027 hPa | 0 mm | - | - | - |
| 1788162577 | 23.33° C | 27% | 1027 hPa | 0 mm | - | - | - |
| 1788162274 | 23.33° C | 27% | 1026.8 hPa | 0 mm | - | - | - |
| 1788156787 | 26.67° C | 19% | 1026.1 hPa | 0 mm | - | - | - |
| 1788156484 | 26.67° C | 19% | 1026.1 hPa | 0 mm | - | - | - |
| 1788156181 | 26.67° C | 19% | 1026.1 hPa | 0 mm | - | - | - |
| 1788155878 | 26.67° C | 19% | 1026.1 hPa | 0 mm | - | - | - |
| 1788155575 | 26.67° C | 19% | 1026.2 hPa | 0 mm | - | - | - |
| 1788155272 | 27.22° C | 19% | 1026.1 hPa | 0 mm | - | - | - |
| 1788154969 | 27.22° C | 19% | 1026.2 hPa | 0 mm | - | - | - |
| 1788154665 | 27.22° C | 18% | 1026.2 hPa | 0 mm | - | - | - |
| 1788154362 | 27.22° C | 18% | 1026.3 hPa | 0 mm | - | - | - |
* Rain since midnight (hover to see other rain measurements)
** Current wind speed in m/s (hover to see current wind gust speed)